owner,sensor,date,latitude,longitude,vertical_datum,sea_water_temperature,qcFlag 
DISL,ioos:station:DISL:BSCA:1,2011-04-01T00:00:00Z,30.3288,-87.8293,0.0,21.65,2 
DISL,ioos:station:DISL:BSCA:1,2011-04-01T00:30:00Z,30.3288,-87.8293,0.0,21.59,2 
DISL,ioos:station:DISL:BSCA:1,2011-04-01T01:00:00Z,30.3288,-87.8293,0.0,21.53,2 
DISL,ioos:station:DISL:BSCA:1,2011-04-01T01:30:00Z,30.3288,-87.8293,0.0,21.5,2 
DISL,ioos:station:DISL:BSCA:1,2011-04-01T02:00:00Z,30.3288,-87.8293,0.0,21.48,2 
DISL,ioos:station:DISL:BSCA:1,2011-04-01T02:30:00Z,30.3288,-87.8293,0.0,21.58,2 
DISL,ioos:station:DISL:BSCA:1,2011-04-01T03:00:00Z,30.3288,-87.8293,0.0,21.65,2 
DISL,ioos:station:DISL:BSCA:1,2011-04-01T03:30:00Z,30.3288,-87.8293,0.0,21.7,2 
DISL,ioos:station:DISL:BSCA:1,2011-04-01T04:00:00Z,30.3288,-87.8293,0.0,21.67,2 
DISL,ioos:station:DISL:BSCA:1,2011-04-01T04:30:00Z,30.3288,-87.8293,0.0,21.64,2 
DISL,ioos:station:DISL:BSCA:1,2011-04-01T05:00:00Z,30.3288,-87.8293,0.0,21.75,2 
DISL,ioos:station:DISL:BSCA:1,2011-04-01T05:30:00Z,30.3288,-87.8293,0.0,21.59,2 
DISL,ioos:station:DISL:BSCA:1,2011-04-01T06:00:00Z,30.3288,-87.8293,0.0,21.58,2 
DISL,ioos:station:DISL:BSCA:1,2011-04-01T06:30:00Z,30.3288,-87.8293,0.0,21.78,2 
DISL,ioos:station:DISL:BSCA:1,2011-04-01T07:00:00Z,30.3288,-87.8293,0.0,21.65,2 
DISL,ioos:station:DISL:BSCA:1,2011-04-01T07:30:00Z,30.3288,-87.8293,0.0,21.24,2 
DISL,ioos:station:DISL:BSCA:1,2011-04-01T08:00:00Z,30.3288,-87.8293,0.0,20.88,2 
DISL,ioos:station:DISL:BSCA:1,2011-04-01T08:30:00Z,30.3288,-87.8293,0.0,20.84,2 
DISL,ioos:station:DISL:BSCA:1,2011-04-01T09:00:00Z,30.3288,-87.8293,0.0,20.76,2 
DISL,ioos:station:DISL:BSCA:1,2011-04-01T09:30:00Z,30.3288,-87.8293,0.0,20.68,2 
DISL,ioos:station:DISL:BSCA:1,2011-04-01T10:00:00Z,30.3288,-87.8293,0.0,20.78,2 
DISL,ioos:station:DISL:BSCA:1,2011-04-01T10:30:00Z,30.3288,-87.8293,0.0,21.18,2 
DISL,ioos:station:DISL:BSCA:1,2011-04-01T11:00:00Z,30.3288,-87.8293,0.0,20.97,2 
DISL,ioos:station:DISL:BSCA:1,2011-04-01T11:30:00Z,30.3288,-87.8293,0.0,20.99,2 
DISL,ioos:station:DISL:BSCA:1,2011-04-01T12:00:00Z,30.3288,-87.8293,0.0,20.54,2 
DISL,ioos:station:DISL:BSCA:1,2011-04-01T12:30:00Z,30.3288,-87.8293,0.0,20.48,2 
DISL,ioos:station:DISL:BSCA:1,2011-04-01T13:00:00Z,30.3288,-87.8293,0.0,20.48,2 
DISL,ioos:station:DISL:BSCA:1,2011-04-01T13:30:00Z,30.3288,-87.8293,0.0,20.5,2 
DISL,ioos:station:DISL:BSCA:1,2011-04-01T14:00:00Z,30.3288,-87.8293,0.0,20.58,2 
DISL,ioos:station:DISL:BSCA:1,2011-04-01T14:30:00Z,30.3288,-87.8293,0.0,20.61,2 
DISL,ioos:station:DISL:BSCA:1,2011-04-01T15:00:00Z,30.3288,-87.8293,0.0,20.63,2 
DISL,ioos:station:DISL:BSCA:1,2011-04-01T15:30:00Z,30.3288,-87.8293,0.0,20.67,2 
DISL,ioos:station:DISL:BSCA:1,2011-04-01T16:00:00Z,30.3288,-87.8293,0.0,20.77,2 
DISL,ioos:station:DISL:BSCA:1,2011-04-01T16:30:00Z,30.3288,-87.8293,0.0,20.57,2 
DISL,ioos:station:DISL:BSCA:1,2011-04-01T17:00:00Z,30.3288,-87.8293,0.0,20.63,2 
DISL,ioos:station:DISL:BSCA:1,2011-04-01T17:30:00Z,30.3288,-87.8293,0.0,20.71,2 
DISL,ioos:station:DISL:BSCA:1,2011-04-01T18:00:00Z,30.3288,-87.8293,0.0,20.79,2 
DISL,ioos:station:DISL:BSCA:1,2011-04-01T18:30:00Z,30.3288,-87.8293,0.0,20.92,2 
DISL,ioos:station:DISL:BSCA:1,2011-04-01T19:00:00Z,30.3288,-87.8293,0.0,21.04,2 
DISL,ioos:station:DISL:BSCA:1,2011-04-01T19:30:00Z,30.3288,-87.8293,0.0,21.26,2 
DISL,ioos:station:DISL:BSCA:1,2011-04-01T20:00:00Z,30.3288,-87.8293,0.0,21.52,2 
DISL,ioos:station:DISL:BSCA:1,2011-04-01T20:30:00Z,30.3288,-87.8293,0.0,21.67,2 
DISL,ioos:station:DISL:BSCA:1,2011-04-01T21:00:00Z,30.3288,-87.8293,0.0,21.71,2 
DISL,ioos:station:DISL:BSCA:1,2011-04-01T21:30:00Z,30.3288,-87.8293,0.0,21.78,2 
DISL,ioos:station:DISL:BSCA:1,2011-04-01T22:00:00Z,30.3288,-87.8293,0.0,21.78,2 
DISL,ioos:station:DISL:BSCA:1,2011-04-01T22:30:00Z,30.3288,-87.8293,0.0,21.81,2 
DISL,ioos:station:DISL:BSCA:1,2011-04-01T23:00:00Z,30.3288,-87.8293,0.0,21.81,2 
DISL,ioos:station:DISL:BSCA:1,2011-04-01T23:30:00Z,30.3288,-87.8293,0.0,21.8,2 
DISL,ioos:station:DISL:BSCA:1,2011-04-02T00:00:00Z,30.3288,-87.8293,0.0,21.78,2 
DISL,ioos:station:DISL:BSCA:1,2011-04-02T00:30:00Z,30.3288,-87.8293,0.0,21.75,2 
DISL,ioos:station:DISL:BSCA:1,2011-04-02T01:00:00Z,30.3288,-87.8293,0.0,21.72,2 
DISL,ioos:station:DISL:BSCA:1,2011-04-02T01:30:00Z,30.3288,-87.8293,0.0,21.69,2 
DISL,ioos:station:DISL:BSCA:1,2011-04-02T02:00:00Z,30.3288,-87.8293,0.0,21.67,2 
DISL,ioos:station:DISL:BSCA:1,2011-04-02T02:30:00Z,30.3288,-87.8293,0.0,21.64,2 
DISL,ioos:station:DISL:BSCA:1,2011-04-02T03:00:00Z,30.3288,-87.8293,0.0,21.61,2 
DISL,ioos:station:DISL:BSCA:1,2011-04-02T03:30:00Z,30.3288,-87.8293,0.0,21.59,2 
DISL,ioos:station:DISL:BSCA:1,2011-04-02T04:00:00Z,30.3288,-87.8293,0.0,21.57,2 
DISL,ioos:station:DISL:BSCA:1,2011-04-02T04:30:00Z,30.3288,-87.8293,0.0,21.53,2 
DISL,ioos:station:DISL:BSCA:1,2011-04-02T05:00:00Z,30.3288,-87.8293,0.0,21.5,2 
DISL,ioos:station:DISL:BSCA:1,2011-04-02T05:30:00Z,30.3288,-87.8293,0.0,21.45,2 
DISL,ioos:station:DISL:BSCA:1,2011-04-02T06:00:00Z,30.3288,-87.8293,0.0,21.45,2 
DISL,ioos:station:DISL:BSCA:1,2011-04-02T06:30:00Z,30.3288,-87.8293,0.0,21.45,2 
DISL,ioos:station:DISL:BSCA:1,2011-04-02T07:00:00Z,30.3288,-87.8293,0.0,21.48,2 
DISL,ioos:station:DISL:BSCA:1,2011-04-02T07:30:00Z,30.3288,-87.8293,0.0,21.45,2 
DISL,ioos:station:DISL:BSCA:1,2011-04-02T08:00:00Z,30.3288,-87.8293,0.0,21.47,2 
DISL,ioos:station:DISL:BSCA:1,2011-04-02T08:30:00Z,30.3288,-87.8293,0.0,21.45,2 
DISL,ioos:station:DISL:BSCA:1,2011-04-02T09:00:00Z,30.3288,-87.8293,0.0,21.42,2 
DISL,ioos:station:DISL:BSCA:1,2011-04-02T09:30:00Z,30.3288,-87.8293,0.0,21.42,2 
DISL,ioos:station:DISL:BSCA:1,2011-04-02T10:00:00Z,30.3288,-87.8293,0.0,21.44,2 
DISL,ioos:station:DISL:BSCA:1,2011-04-02T10:30:00Z,30.3288,-87.8293,0.0,21.43,2 
DISL,ioos:station:DISL:BSCA:1,2011-04-02T11:00:00Z,30.3288,-87.8293,0.0,21.41,2 
DISL,ioos:station:DISL:BSCA:1,2011-04-02T11:30:00Z,30.3288,-87.8293,0.0,21.38,2 
DISL,ioos:station:DISL:BSCA:1,2011-04-02T12:00:00Z,30.3288,-87.8293,0.0,21.36,2 
DISL,ioos:station:DISL:BSCA:1,2011-04-02T12:30:00Z,30.3288,-87.8293,0.0,21.35,2 
DISL,ioos:station:DISL:BSCA:1,2011-04-02T13:00:00Z,30.3288,-87.8293,0.0,21.35,2 
DISL,ioos:station:DISL:BSCA:1,2011-04-02T13:30:00Z,30.3288,-87.8293,0.0,21.33,2 
DISL,ioos:station:DISL:BSCA:1,2011-04-02T14:00:00Z,30.3288,-87.8293,0.0,21.33,2 
DISL,ioos:station:DISL:BSCA:1,2011-04-02T14:30:00Z,30.3288,-87.8293,0.0,21.36,2 
DISL,ioos:station:DISL:BSCA:1,2011-04-02T15:00:00Z,30.3288,-87.8293,0.0,21.33,2 
DISL,ioos:station:DISL:BSCA:1,2011-04-02T15:30:00Z,30.3288,-87.8293,0.0,21.36,2 
DISL,ioos:station:DISL:BSCA:1,2011-04-02T16:00:00Z,30.3288,-87.8293,0.0,21.4,2 
DISL,ioos:station:DISL:BSCA:1,2011-04-02T16:30:00Z,30.3288,-87.8293,0.0,21.47,2 
DISL,ioos:station:DISL:BSCA:1,2011-04-02T17:00:00Z,30.3288,-87.8293,0.0,21.65,2 
DISL,ioos:station:DISL:BSCA:1,2011-04-02T17:30:00Z,30.3288,-87.8293,0.0,21.68,2 
DISL,ioos:station:DISL:BSCA:1,2011-04-02T18:00:00Z,30.3288,-87.8293,0.0,21.72,2 
DISL,ioos:station:DISL:BSCA:1,2011-04-02T18:30:00Z,30.3288,-87.8293,0.0,21.74,2 
DISL,ioos:station:DISL:BSCA:1,2011-04-02T19:00:00Z,30.3288,-87.8293,0.0,21.91,2 
DISL,ioos:station:DISL:BSCA:1,2011-04-02T19:30:00Z,30.3288,-87.8293,0.0,21.83,2 
DISL,ioos:station:DISL:BSCA:1,2011-04-02T20:00:00Z,30.3288,-87.8293,0.0,21.77,2 
DISL,ioos:station:DISL:BSCA:1,2011-04-02T20:30:00Z,30.3288,-87.8293,0.0,21.75,2 
DISL,ioos:station:DISL:BSCA:1,2011-04-02T21:00:00Z,30.3288,-87.8293,0.0,21.85,2 
DISL,ioos:station:DISL:BSCA:1,2011-04-02T21:30:00Z,30.3288,-87.8293,0.0,22.22,2 
DISL,ioos:station:DISL:BSCA:1,2011-04-02T22:00:00Z,30.3288,-87.8293,0.0,22.49,2 
DISL,ioos:station:DISL:BSCA:1,2011-04-02T22:30:00Z,30.3288,-87.8293,0.0,22.83,2 
DISL,ioos:station:DISL:BSCA:1,2011-04-02T23:00:00Z,30.3288,-87.8293,0.0,22.88,2 
DISL,ioos:station:DISL:BSCA:1,2011-04-02T23:30:00Z,30.3288,-87.8293,0.0,22.95,2 
DISL,ioos:station:DISL:BSCA:1,2011-04-03T00:00:00Z,30.3288,-87.8293,0.0,22.94,2 
DISL,ioos:station:DISL:BSCA:1,2011-04-03T00:30:00Z,30.3288,-87.8293,0.0,22.91,2 
DISL,ioos:station:DISL:BSCA:1,2011-04-03T01:00:00Z,30.3288,-87.8293,0.0,22.88,2 
DISL,ioos:station:DISL:BSCA:1,2011-04-03T01:30:00Z,30.3288,-87.8293,0.0,22.83,2 
DISL,ioos:station:DISL:BSCA:1,2011-04-03T02:00:00Z,30.3288,-87.8293,0.0,22.79,2 
DISL,ioos:station:DISL:BSCA:1,2011-04-03T02:30:00Z,30.3288,-87.8293,0.0,22.75,2 
DISL,ioos:station:DISL:BSCA:1,2011-04-03T03:00:00Z,30.3288,-87.8293,0.0,22.7,2 
DISL,ioos:station:DISL:BSCA:1,2011-04-03T03:30:00Z,30.3288,-87.8293,0.0,22.68,2 
DISL,ioos:station:DISL:BSCA:1,2011-04-03T04:00:00Z,30.3288,-87.8293,0.0,22.65,2 
DISL,ioos:station:DISL:BSCA:1,2011-04-03T04:30:00Z,30.3288,-87.8293,0.0,22.61,2 
DISL,ioos:station:DISL:BSCA:1,2011-04-03T05:00:00Z,30.3288,-87.8293,0.0,22.56,2 
DISL,ioos:station:DISL:BSCA:1,2011-04-03T05:30:00Z,30.3288,-87.8293,0.0,22.51,2 
DISL,ioos:station:DISL:BSCA:1,2011-04-03T06:00:00Z,30.3288,-87.8293,0.0,22.46,2 
DISL,ioos:station:DISL:BSCA:1,2011-04-03T06:30:00Z,30.3288,-87.8293,0.0,22.41,2 
DISL,ioos:station:DISL:BSCA:1,2011-04-03T07:00:00Z,30.3288,-87.8293,0.0,22.42,2 
DISL,ioos:station:DISL:BSCA:1,2011-04-03T07:30:00Z,30.3288,-87.8293,0.0,22.41,2 
DISL,ioos:station:DISL:BSCA:1,2011-04-03T08:00:00Z,30.3288,-87.8293,0.0,22.42,2 
DISL,ioos:station:DISL:BSCA:1,2011-04-03T08:30:00Z,30.3288,-87.8293,0.0,22.26,2 
DISL,ioos:station:DISL:BSCA:1,2011-04-03T09:00:00Z,30.3288,-87.8293,0.0,22.34,2 
DISL,ioos:station:DISL:BSCA:1,2011-04-03T09:30:00Z,30.3288,-87.8293,0.0,22.23,2 
DISL,ioos:station:DISL:BSCA:1,2011-04-03T10:00:00Z,30.3288,-87.8293,0.0,22.25,2 
DISL,ioos:station:DISL:BSCA:1,2011-04-03T10:30:00Z,30.3288,-87.8293,0.0,22.2,2 
DISL,ioos:station:DISL:BSCA:1,2011-04-03T11:00:00Z,30.3288,-87.8293,0.0,22.15,2 
DISL,ioos:station:DISL:BSCA:1,2011-04-03T11:30:00Z,30.3288,-87.8293,0.0,22.1,2 
DISL,ioos:station:DISL:BSCA:1,2011-04-03T12:00:00Z,30.3288,-87.8293,0.0,22.04,2 
DISL,ioos:station:DISL:BSCA:1,2011-04-03T12:30:00Z,30.3288,-87.8293,0.0,22.03,2 
DISL,ioos:station:DISL:BSCA:1,2011-04-03T13:00:00Z,30.3288,-87.8293,0.0,22.02,2 
DISL,ioos:station:DISL:BSCA:1,2011-04-03T13:30:00Z,30.3288,-87.8293,0.0,22.03,2 
DISL,ioos:station:DISL:BSCA:1,2011-04-03T14:00:00Z,30.3288,-87.8293,0.0,22.08,2 
DISL,ioos:station:DISL:BSCA:1,2011-04-03T14:30:00Z,30.3288,-87.8293,0.0,22.13,2 
DISL,ioos:station:DISL:BSCA:1,2011-04-03T15:00:00Z,30.3288,-87.8293,0.0,22.2,2 
DISL,ioos:station:DISL:BSCA:1,2011-04-03T15:30:00Z,30.3288,-87.8293,0.0,22.25,2 
DISL,ioos:station:DISL:BSCA:1,2011-04-03T16:00:00Z,30.3288,-87.8293,0.0,22.32,2 
DISL,ioos:station:DISL:BSCA:1,2011-04-03T16:30:00Z,30.3288,-87.8293,0.0,22.45,2 
DISL,ioos:station:DISL:BSCA:1,2011-04-03T17:00:00Z,30.3288,-87.8293,0.0,22.55,2 
DISL,ioos:station:DISL:BSCA:1,2011-04-03T17:30:00Z,30.3288,-87.8293,0.0,22.62,2 
DISL,ioos:station:DISL:BSCA:1,2011-04-03T18:00:00Z,30.3288,-87.8293,0.0,22.71,2 
DISL,ioos:station:DISL:BSCA:1,2011-04-03T18:30:00Z,30.3288,-87.8293,0.0,22.8,2 
DISL,ioos:station:DISL:BSCA:1,2011-04-03T19:00:00Z,30.3288,-87.8293,0.0,22.91,2 
DISL,ioos:station:DISL:BSCA:1,2011-04-03T19:30:00Z,30.3288,-87.8293,0.0,22.99,2 
DISL,ioos:station:DISL:BSCA:1,2011-04-03T20:00:00Z,30.3288,-87.8293,0.0,23.07,2 
DISL,ioos:station:DISL:BSCA:1,2011-04-03T20:30:00Z,30.3288,-87.8293,0.0,23.16,2 
DISL,ioos:station:DISL:BSCA:1,2011-04-03T21:00:00Z,30.3288,-87.8293,0.0,23.21,2 
DISL,ioos:station:DISL:BSCA:1,2011-04-03T21:30:00Z,30.3288,-87.8293,0.0,23.26,2 
DISL,ioos:station:DISL:BSCA:1,2011-04-03T22:00:00Z,30.3288,-87.8293,0.0,23.29,2 
DISL,ioos:station:DISL:BSCA:1,2011-04-03T22:30:00Z,30.3288,-87.8293,0.0,23.29,2 
DISL,ioos:station:DISL:BSCA:1,2011-04-03T23:00:00Z,30.3288,-87.8293,0.0,23.27,2 
DISL,ioos:station:DISL:BSCA:1,2011-04-03T23:30:00Z,30.3288,-87.8293,0.0,23.24,2 
DISL,ioos:station:DISL:BSCA:1,2011-04-04T00:00:00Z,30.3288,-87.8293,0.0,23.19,2 
DISL,ioos:station:DISL:BSCA:1,2011-04-04T00:30:00Z,30.3288,-87.8293,0.0,23.14,2 
DISL,ioos:station:DISL:BSCA:1,2011-04-04T01:00:00Z,30.3288,-87.8293,0.0,23.1,2 
DISL,ioos:station:DISL:BSCA:1,2011-04-04T01:30:00Z,30.3288,-87.8293,0.0,23.05,2 
DISL,ioos:station:DISL:BSCA:1,2011-04-04T02:00:00Z,30.3288,-87.8293,0.0,22.99,2 
DISL,ioos:station:DISL:BSCA:1,2011-04-04T02:30:00Z,30.3288,-87.8293,0.0,22.96,2 
DISL,ioos:station:DISL:BSCA:1,2011-04-04T03:00:00Z,30.3288,-87.8293,0.0,22.92,2 
DISL,ioos:station:DISL:BSCA:1,2011-04-04T03:30:00Z,30.3288,-87.8293,0.0,22.91,2 
DISL,ioos:station:DISL:BSCA:1,2011-04-04T04:00:00Z,30.3288,-87.8293,0.0,22.85,2 
DISL,ioos:station:DISL:BSCA:1,2011-04-04T04:30:00Z,30.3288,-87.8293,0.0,22.83,2 
DISL,ioos:station:DISL:BSCA:1,2011-04-04T05:00:00Z,30.3288,-87.8293,0.0,22.78,2 
DISL,ioos:station:DISL:BSCA:1,2011-04-04T05:30:00Z,30.3288,-87.8293,0.0,22.72,2 
DISL,ioos:station:DISL:BSCA:1,2011-04-04T06:00:00Z,30.3288,-87.8293,0.0,22.68,2 
DISL,ioos:station:DISL:BSCA:1,2011-04-04T06:30:00Z,30.3288,-87.8293,0.0,22.66,2 
DISL,ioos:station:DISL:BSCA:1,2011-04-04T07:00:00Z,30.3288,-87.8293,0.0,22.65,2 
DISL,ioos:station:DISL:BSCA:1,2011-04-04T07:30:00Z,30.3288,-87.8293,0.0,22.63,2 
DISL,ioos:station:DISL:BSCA:1,2011-04-04T08:00:00Z,30.3288,-87.8293,0.0,22.59,2 
DISL,ioos:station:DISL:BSCA:1,2011-04-04T08:30:00Z,30.3288,-87.8293,0.0,22.54,2 
DISL,ioos:station:DISL:BSCA:1,2011-04-04T09:00:00Z,30.3288,-87.8293,0.0,22.5,2 
DISL,ioos:station:DISL:BSCA:1,2011-04-04T09:30:00Z,30.3288,-87.8293,0.0,22.47,2 
DISL,ioos:station:DISL:BSCA:1,2011-04-04T10:00:00Z,30.3288,-87.8293,0.0,22.44,2 
DISL,ioos:station:DISL:BSCA:1,2011-04-04T10:30:00Z,30.3288,-87.8293,0.0,22.42,2 
DISL,ioos:station:DISL:BSCA:1,2011-04-04T11:00:00Z,30.3288,-87.8293,0.0,22.39,2 
DISL,ioos:station:DISL:BSCA:1,2011-04-04T11:30:00Z,30.3288,-87.8293,0.0,22.34,2 
DISL,ioos:station:DISL:BSCA:1,2011-04-04T12:00:00Z,30.3288,-87.8293,0.0,22.32,2 
DISL,ioos:station:DISL:BSCA:1,2011-04-04T12:30:00Z,30.3288,-87.8293,0.0,22.3,2 
DISL,ioos:station:DISL:BSCA:1,2011-04-04T13:00:00Z,30.3288,-87.8293,0.0,22.3,2 
DISL,ioos:station:DISL:BSCA:1,2011-04-04T13:30:00Z,30.3288,-87.8293,0.0,22.31,2 
DISL,ioos:station:DISL:BSCA:1,2011-04-04T14:00:00Z,30.3288,-87.8293,0.0,22.32,2 
DISL,ioos:station:DISL:BSCA:1,2011-04-04T14:30:00Z,30.3288,-87.8293,0.0,22.36,2 
DISL,ioos:station:DISL:BSCA:1,2011-04-04T15:00:00Z,30.3288,-87.8293,0.0,22.4,2 
DISL,ioos:station:DISL:BSCA:1,2011-04-04T15:30:00Z,30.3288,-87.8293,0.0,22.46,2 
DISL,ioos:station:DISL:BSCA:1,2011-04-04T16:00:00Z,30.3288,-87.8293,0.0,22.55,2 
DISL,ioos:station:DISL:BSCA:1,2011-04-04T16:30:00Z,30.3288,-87.8293,0.0,22.64,2 
DISL,ioos:station:DISL:BSCA:1,2011-04-04T17:00:00Z,30.3288,-87.8293,0.0,22.73,2 
DISL,ioos:station:DISL:BSCA:1,2011-04-04T17:30:00Z,30.3288,-87.8293,0.0,22.86,2 
DISL,ioos:station:DISL:BSCA:1,2011-04-04T18:00:00Z,30.3288,-87.8293,0.0,22.96,2 
DISL,ioos:station:DISL:BSCA:1,2011-04-04T18:30:00Z,30.3288,-87.8293,0.0,23.07,2 
DISL,ioos:station:DISL:BSCA:1,2011-04-04T19:00:00Z,30.3288,-87.8293,0.0,23.15,2 
DISL,ioos:station:DISL:BSCA:1,2011-04-04T19:30:00Z,30.3288,-87.8293,0.0,23.25,2 
DISL,ioos:station:DISL:BSCA:1,2011-04-04T20:00:00Z,30.3288,-87.8293,0.0,23.32,2 
DISL,ioos:station:DISL:BSCA:1,2011-04-04T20:30:00Z,30.3288,-87.8293,0.0,23.42,2 
DISL,ioos:station:DISL:BSCA:1,2011-04-04T21:00:00Z,30.3288,-87.8293,0.0,23.47,2 
DISL,ioos:station:DISL:BSCA:1,2011-04-04T21:30:00Z,30.3288,-87.8293,0.0,23.39,2 
DISL,ioos:station:DISL:BSCA:1,2011-04-04T22:00:00Z,30.3288,-87.8293,0.0,23.48,2 
DISL,ioos:station:DISL:BSCA:1,2011-04-04T22:30:00Z,30.3288,-87.8293,0.0,23.53,2 
DISL,ioos:station:DISL:BSCA:1,2011-04-04T23:00:00Z,30.3288,-87.8293,0.0,23.53,2 
DISL,ioos:station:DISL:BSCA:1,2011-04-04T23:30:00Z,30.3288,-87.8293,0.0,23.54,2 
DISL,ioos:station:DISL:BSCA:1,2011-04-05T00:00:00Z,30.3288,-87.8293,0.0,23.53,2 
DISL,ioos:station:DISL:BSCA:1,2011-04-05T00:30:00Z,30.3288,-87.8293,0.0,23.52,2 
DISL,ioos:station:DISL:BSCA:1,2011-04-05T01:00:00Z,30.3288,-87.8293,0.0,23.5,2 
DISL,ioos:station:DISL:BSCA:1,2011-04-05T01:30:00Z,30.3288,-87.8293,0.0,23.48,2 
DISL,ioos:station:DISL:BSCA:1,2011-04-05T02:00:00Z,30.3288,-87.8293,0.0,23.5,2 
DISL,ioos:station:DISL:BSCA:1,2011-04-05T02:30:00Z,30.3288,-87.8293,0.0,23.35,2 
DISL,ioos:station:DISL:BSCA:1,2011-04-05T03:00:00Z,30.3288,-87.8293,0.0,23.21,2 
DISL,ioos:station:DISL:BSCA:1,2011-04-05T03:30:00Z,30.3288,-87.8293,0.0,23.16,2 
DISL,ioos:station:DISL:BSCA:1,2011-04-05T04:00:00Z,30.3288,-87.8293,0.0,23.05,2 
DISL,ioos:station:DISL:BSCA:1,2011-04-05T04:30:00Z,30.3288,-87.8293,0.0,22.87,2 
DISL,ioos:station:DISL:BSCA:1,2011-04-05T05:00:00Z,30.3288,-87.8293,0.0,22.76,2 
DISL,ioos:station:DISL:BSCA:1,2011-04-05T05:30:00Z,30.3288,-87.8293,0.0,22.75,2 
DISL,ioos:station:DISL:BSCA:1,2011-04-05T06:00:00Z,30.3288,-87.8293,0.0,22.64,2 
DISL,ioos:station:DISL:BSCA:1,2011-04-05T06:30:00Z,30.3288,-87.8293,0.0,22.65,2 
DISL,ioos:station:DISL:BSCA:1,2011-04-05T07:00:00Z,30.3288,-87.8293,0.0,22.6,2 
DISL,ioos:station:DISL:BSCA:1,2011-04-05T07:30:00Z,30.3288,-87.8293,0.0,22.62,2 
DISL,ioos:station:DISL:BSCA:1,2011-04-05T08:00:00Z,30.3288,-87.8293,0.0,22.84,2 
DISL,ioos:station:DISL:BSCA:1,2011-04-05T08:30:00Z,30.3288,-87.8293,0.0,22.72,2 
DISL,ioos:station:DISL:BSCA:1,2011-04-05T09:00:00Z,30.3288,-87.8293,0.0,22.44,2 
DISL,ioos:station:DISL:BSCA:1,2011-04-05T09:30:00Z,30.3288,-87.8293,0.0,22.24,2 
DISL,ioos:station:DISL:BSCA:1,2011-04-05T10:00:00Z,30.3288,-87.8293,0.0,22.06,2 
DISL,ioos:station:DISL:BSCA:1,2011-04-05T10:30:00Z,30.3288,-87.8293,0.0,21.85,2 
DISL,ioos:station:DISL:BSCA:1,2011-04-05T11:00:00Z,30.3288,-87.8293,0.0,21.68,2 
DISL,ioos:station:DISL:BSCA:1,2011-04-05T11:30:00Z,30.3288,-87.8293,0.0,21.41,2 
DISL,ioos:station:DISL:BSCA:1,2011-04-05T12:00:00Z,30.3288,-87.8293,0.0,21.28,2 
DISL,ioos:station:DISL:BSCA:1,2011-04-05T12:30:00Z,30.3288,-87.8293,0.0,21.2,2 
DISL,ioos:station:DISL:BSCA:1,2011-04-05T13:00:00Z,30.3288,-87.8293,0.0,21.08,2 
DISL,ioos:station:DISL:BSCA:1,2011-04-05T13:30:00Z,30.3288,-87.8293,0.0,20.97,2 
DISL,ioos:station:DISL:BSCA:1,2011-04-05T14:00:00Z,30.3288,-87.8293,0.0,20.86,2 
DISL,ioos:station:DISL:BSCA:1,2011-04-05T14:30:00Z,30.3288,-87.8293,0.0,20.85,2 
DISL,ioos:station:DISL:BSCA:1,2011-04-05T15:00:00Z,30.3288,-87.8293,0.0,20.79,2 
DISL,ioos:station:DISL:BSCA:1,2011-04-05T15:30:00Z,30.3288,-87.8293,0.0,20.77,2 
DISL,ioos:station:DISL:BSCA:1,2011-04-05T16:00:00Z,30.3288,-87.8293,0.0,20.77,2 
DISL,ioos:station:DISL:BSCA:1,2011-04-05T16:30:00Z,30.3288,-87.8293,0.0,20.82,2 
DISL,ioos:station:DISL:BSCA:1,2011-04-05T17:00:00Z,30.3288,-87.8293,0.0,20.84,2 
DISL,ioos:station:DISL:BSCA:1,2011-04-05T17:30:00Z,30.3288,-87.8293,0.0,20.9,2 
DISL,ioos:station:DISL:BSCA:1,2011-04-05T18:00:00Z,30.3288,-87.8293,0.0,20.86,2 
DISL,ioos:station:DISL:BSCA:1,2011-04-05T18:30:00Z,30.3288,-87.8293,0.0,20.93,2 
DISL,ioos:station:DISL:BSCA:1,2011-04-05T19:00:00Z,30.3288,-87.8293,0.0,20.94,2 
DISL,ioos:station:DISL:BSCA:1,2011-04-05T19:30:00Z,30.3288,-87.8293,0.0,20.99,2 
DISL,ioos:station:DISL:BSCA:1,2011-04-05T20:00:00Z,30.3288,-87.8293,0.0,21.06,2 
DISL,ioos:station:DISL:BSCA:1,2011-04-05T20:30:00Z,30.3288,-87.8293,0.0,21.15,2 
DISL,ioos:station:DISL:BSCA:1,2011-04-05T21:00:00Z,30.3288,-87.8293,0.0,21.19,2 
DISL,ioos:station:DISL:BSCA:1,2011-04-05T21:30:00Z,30.3288,-87.8293,0.0,21.1,2 
DISL,ioos:station:DISL:BSCA:1,2011-04-05T22:00:00Z,30.3288,-87.8293,0.0,21.12,2 
DISL,ioos:station:DISL:BSCA:1,2011-04-05T22:30:00Z,30.3288,-87.8293,0.0,21.29,2 
DISL,ioos:station:DISL:BSCA:1,2011-04-05T23:00:00Z,30.3288,-87.8293,0.0,21.34,2 
DISL,ioos:station:DISL:BSCA:1,2011-04-05T23:30:00Z,30.3288,-87.8293,0.0,21.3,2 
DISL,ioos:station:DISL:BSCA:1,2011-04-06T00:00:00Z,30.3288,-87.8293,0.0,21.25,2 
DISL,ioos:station:DISL:BSCA:1,2011-04-06T00:30:00Z,30.3288,-87.8293,0.0,21.2,2 
DISL,ioos:station:DISL:BSCA:1,2011-04-06T01:00:00Z,30.3288,-87.8293,0.0,21.16,2 
DISL,ioos:station:DISL:BSCA:1,2011-04-06T01:30:00Z,30.3288,-87.8293,0.0,21.07,2 
DISL,ioos:station:DISL:BSCA:1,2011-04-06T02:00:00Z,30.3288,-87.8293,0.0,21.02,2 
DISL,ioos:station:DISL:BSCA:1,2011-04-06T02:30:00Z,30.3288,-87.8293,0.0,20.92,2 
DISL,ioos:station:DISL:BSCA:1,2011-04-06T03:00:00Z,30.3288,-87.8293,0.0,20.85,2 
DISL,ioos:station:DISL:BSCA:1,2011-04-06T03:30:00Z,30.3288,-87.8293,0.0,20.79,2 
DISL,ioos:station:DISL:BSCA:1,2011-04-06T04:00:00Z,30.3288,-87.8293,0.0,20.73,2 
DISL,ioos:station:DISL:BSCA:1,2011-04-06T04:30:00Z,30.3288,-87.8293,0.0,20.68,2 
DISL,ioos:station:DISL:BSCA:1,2011-04-06T05:00:00Z,30.3288,-87.8293,0.0,20.65,2 
DISL,ioos:station:DISL:BSCA:1,2011-04-06T05:30:00Z,30.3288,-87.8293,0.0,20.64,2 
DISL,ioos:station:DISL:BSCA:1,2011-04-06T06:00:00Z,30.3288,-87.8293,0.0,20.55,2 
DISL,ioos:station:DISL:BSCA:1,2011-04-06T06:30:00Z,30.3288,-87.8293,0.0,20.51,2 
DISL,ioos:station:DISL:BSCA:1,2011-04-06T07:00:00Z,30.3288,-87.8293,0.0,20.62,2 
DISL,ioos:station:DISL:BSCA:1,2011-04-06T07:30:00Z,30.3288,-87.8293,0.0,20.61,2 
DISL,ioos:station:DISL:BSCA:1,2011-04-06T08:00:00Z,30.3288,-87.8293,0.0,20.27,2 
DISL,ioos:station:DISL:BSCA:1,2011-04-06T08:30:00Z,30.3288,-87.8293,0.0,20.37,2 
DISL,ioos:station:DISL:BSCA:1,2011-04-06T09:00:00Z,30.3288,-87.8293,0.0,20.09,2 
DISL,ioos:station:DISL:BSCA:1,2011-04-06T09:30:00Z,30.3288,-87.8293,0.0,20.02,2 
DISL,ioos:station:DISL:BSCA:1,2011-04-06T10:00:00Z,30.3288,-87.8293,0.0,19.94,2 
DISL,ioos:station:DISL:BSCA:1,2011-04-06T10:30:00Z,30.3288,-87.8293,0.0,19.86,2 
DISL,ioos:station:DISL:BSCA:1,2011-04-06T11:00:00Z,30.3288,-87.8293,0.0,19.76,2 
DISL,ioos:station:DISL:BSCA:1,2011-04-06T11:30:00Z,30.3288,-87.8293,0.0,19.69,2 
DISL,ioos:station:DISL:BSCA:1,2011-04-06T12:00:00Z,30.3288,-87.8293,0.0,19.62,2 
DISL,ioos:station:DISL:BSCA:1,2011-04-06T12:30:00Z,30.3288,-87.8293,0.0,19.59,2 
DISL,ioos:station:DISL:BSCA:1,2011-04-06T13:00:00Z,30.3288,-87.8293,0.0,19.63,2 
DISL,ioos:station:DISL:BSCA:1,2011-04-06T13:30:00Z,30.3288,-87.8293,0.0,19.62,2 
DISL,ioos:station:DISL:BSCA:1,2011-04-06T14:00:00Z,30.3288,-87.8293,0.0,19.59,2 
DISL,ioos:station:DISL:BSCA:1,2011-04-06T14:30:00Z,30.3288,-87.8293,0.0,19.6,2 
DISL,ioos:station:DISL:BSCA:1,2011-04-06T15:00:00Z,30.3288,-87.8293,0.0,19.62,2 
DISL,ioos:station:DISL:BSCA:1,2011-04-06T15:30:00Z,30.3288,-87.8293,0.0,19.65,2 
DISL,ioos:station:DISL:BSCA:1,2011-04-06T16:00:00Z,30.3288,-87.8293,0.0,19.73,2 
DISL,ioos:station:DISL:BSCA:1,2011-04-06T16:30:00Z,30.3288,-87.8293,0.0,19.82,2 
DISL,ioos:station:DISL:BSCA:1,2011-04-06T17:00:00Z,30.3288,-87.8293,0.0,19.94,2 
DISL,ioos:station:DISL:BSCA:1,2011-04-06T17:30:00Z,30.3288,-87.8293,0.0,20.06,2 
DISL,ioos:station:DISL:BSCA:1,2011-04-06T18:00:00Z,30.3288,-87.8293,0.0,20.18,2 
DISL,ioos:station:DISL:BSCA:1,2011-04-06T18:30:00Z,30.3288,-87.8293,0.0,20.26,2 
DISL,ioos:station:DISL:BSCA:1,2011-04-06T19:00:00Z,30.3288,-87.8293,0.0,20.34,2 
DISL,ioos:station:DISL:BSCA:1,2011-04-06T19:30:00Z,30.3288,-87.8293,0.0,20.41,2 
DISL,ioos:station:DISL:BSCA:1,2011-04-06T20:00:00Z,30.3288,-87.8293,0.0,20.46,2 
DISL,ioos:station:DISL:BSCA:1,2011-04-06T20:30:00Z,30.3288,-87.8293,0.0,20.5,2 
DISL,ioos:station:DISL:BSCA:1,2011-04-06T21:00:00Z,30.3288,-87.8293,0.0,20.55,2 
DISL,ioos:station:DISL:BSCA:1,2011-04-06T21:30:00Z,30.3288,-87.8293,0.0,20.57,2 
DISL,ioos:station:DISL:BSCA:1,2011-04-06T22:00:00Z,30.3288,-87.8293,0.0,20.58,2 
DISL,ioos:station:DISL:BSCA:1,2011-04-06T22:30:00Z,30.3288,-87.8293,0.0,20.56,2 
DISL,ioos:station:DISL:BSCA:1,2011-04-06T23:00:00Z,30.3288,-87.8293,0.0,20.55,2 
DISL,ioos:station:DISL:BSCA:1,2011-04-06T23:30:00Z,30.3288,-87.8293,0.0,20.54,2 
DISL,ioos:station:DISL:BSCA:1,2011-04-07T00:00:00Z,30.3288,-87.8293,0.0,20.52,2 
DISL,ioos:station:DISL:BSCA:1,2011-04-07T00:30:00Z,30.3288,-87.8293,0.0,20.5,2 
DISL,ioos:station:DISL:BSCA:1,2011-04-07T01:00:00Z,30.3288,-87.8293,0.0,20.46,2 
DISL,ioos:station:DISL:BSCA:1,2011-04-07T01:30:00Z,30.3288,-87.8293,0.0,20.44,2 
DISL,ioos:station:DISL:BSCA:1,2011-04-07T02:00:00Z,30.3288,-87.8293,0.0,20.43,2 
DISL,ioos:station:DISL:BSCA:1,2011-04-07T02:30:00Z,30.3288,-87.8293,0.0,20.39,2 
DISL,ioos:station:DISL:BSCA:1,2011-04-07T03:00:00Z,30.3288,-87.8293,0.0,20.28,2 